Wind_Speed
41 41 42 42 42 42 44 45 48 51 55 57 60 60 59 58 58 57 56 55 55 55 57 59 60 59 58 57 57 57 57 57 57 57 57 58 59 61 61 61 62 62 62 62 62 62 62 62 61 61 60 59 58 57 56 55 55 56 57 58 58 58 57 58 59 60 60 59 60 61 61 61 61 61 61 62 62 61 60 61 63 65 65 67 68
43 42 43 43 43 44 45 46 47 49 53 56 59 61 61 60 60 60 59 58 57 58 59 60 61 61 60 59 59 59 58 58 58 59 59 60 61 62 62 62 62 62 62 62 62 62 62 62 61 60 60 58 57 56 56 56 56 57 58 59 58 57 57 58 58 58 58 59 60 61 61 61 60 61 61 61 61 60 60 62 64 66 67 68 70
44 44 44 44 44 44 45 46 47 49 51 55 58 61 62 62 61 61 60 60 60 61 61 62 62 62 61 61 60 60 60 59 59 60 60 61 62 62 63 63 63 63 63 62 62 62 62 61 60 60 58 57 57 56 56 57 58 59 59 58 58 57 57 57 57 57 58 59 60 61 61 60 60 61 62 61 59 59 60 62 64 66 68 70 71
45 45 45 45 45 46 46 47 48 49 51 54 56 59 62 63 63 62 62 61 62 62 63 63 63 63 63 62 62 62 61 61 61 61 61 62 63 63 64 64 64 63 63 62 62 61 61 60 59 58 57 57 57 57 58 59 60 60 59 58 57 57 56 55 56 57 58 59 60 60 60 60 60 61 61 60 59 59 61 63 65 67 69 71 72
46 46 47 47 47 47 48 48 49 50 52 54 56 58 60 62 64 64 63 63 63 64 64 64 64 63 63 63 63 63 62 62 62 62 62 63 63 64 64 64 63 62 62 61 61 60 59 58 58 57 57 58 58 59 60 61 60 59 58 57 56 55 54 54 56 57 59 59 60 59 59 60 61 61 60 59 59 60 61 64 65 68 70 72 74
46 47 48 48 49 49 49 49 50 51 53 54 56 58 60 62 64 65 64 64 65 65 64 64 63 63 63 64 64 63 63 63 63 63 62 62 63 63 63 63 62 62 61 60 59 58 57 57 57 58 59 59 60 61 61 61 59 58 57 56 55 53 53 55 57 59 59 59 59 59 59 60 61 60 60 59 59 60 61 64 66 69 71 72 74
46 47 48 49 50 50 50 51 51 52 53 54 56 59 61 63 65 65 65 65 66 66 65 64 63 63 63 63 63 63 63 62 62 62 61 61 62 62 62 61 61 61 60 59 57 56 57 58 59 59 60 60 61 62 61 59 58 57 56 54 52 52 54 56 58 60 60 60 59 59 60 61 60 60 60 60 60 61 62 64 67 69 71 73 74
46 48 49 49 50 51 51 52 52 52 53 54 56 58 61 64 66 67 67 66 66 66 65 64 63 63 62 62 61 61 61 61 61 60 60 61 61 61 61 60 60 59 58 57 56 57 58 60 60 61 61 61 61 60 59 57 57 55 53 52 52 53 55 57 59 61 60 60 60 60 61 60 59 59 60 60 61 63 64 66 68 69 71 74 76
48 49 49 49 50 50 51 51 52 52 53 54 56 58 60 63 66 67 68 67 66 66 65 65 64 63 62 61 60 60 59 59 59 59 60 60 60 60 60 60 59 58 57 56 57 59 61 61 61 61 61 60 59 58 57 56 54 52 51 51 53 55 57 58 60 61 61 60 60 61 60 59 59 59 60 61 62 64 66 68 69 71 72 75 77
48 49 49 49 49 49 50 50 51 51 52 54 55 57 59 62 64 67 68 68 68 67 66 66 65 63 62 61 61 60 59 59 60 60 60 60 60 60 60 59 58 57 57 58 60 61 61 61 61 61 59 58 57 56 55 53 51 50 50 52 54 56 58 59 60 61 61 61 61 61 60 59 59 60 61 62 63 65 67 69 70 72 73 75 77
46 46 46 46 47 47 48 48 49 50 51 53 54 56 58 60 62 64 66 67 67 68 68 68 67 66 64 63 62 61 61 60 61 61 61 61 61 60 59 58 58 58 59 60 61 61 61 60 59 58 56 56 55 54 52 50 49 50 52 54 56 57 59 60 60 61 62 62 61 60 60 60 61 61 62 63 65 67 69 70 71 73 75 76 78
44 45 45 46 46 46 47 47 48 49 50 51 52 53 54 57 59 61 63 64 65 66 67 67 67 67 67 66 65 64 64 63 63 62 62 61 61 60 59 58 58 59 59 60 60 60 58 57 56 55 55 54 52 51 49 48 49 51 53 55 57 58 59 60 60 62 62 62 61 60 60 61 62 62 63 64 66 68 70 72 73 75 77 78 79
44 44 45 46 47 47 48 48 49 49 49 50 50 50 51 53 56 58 60 62 63 63 63 64 64 64 64 65 65 64 64 64 63 62 62 61 60 59 58 58 58 59 59 59 58 57 56 55 54 53 52 51 49 48 48 49 51 53 55 56 58 58 59 60 61 62 62 62 61 61 61 62 63 63 64 65 67 69 71 73 75 76 78 79 80
41 41 42 43 44 46 47 48 50 50 50 51 50 50 50 51 53 55 57 59 60 60 60 61 61 60 60 60 61 60 60 60 60 59 59 58 57 57 57 57 58 59 59 57 55 54 54 53 52 51 49 48 47 48 49 51 53 54 56 57 58 58 59 60 62 63 62 62 62 62 62 63 63 64 65 67 69 71 72 74 76 77 78 80 81
40 40 40 41 42 43 45 46 48 49 50 51 51 51 51 51 52 53 55 56 58 58 58 57 58 58 57 57 56 55 54 54 54 54 55 55 56 57 58 58 58 57 55 54 53 52 51 50 48 47 47 47 48 49 51 53 54 56 57 57 57 58 59 61 62 63 63 62 62 63 63 64 64 65 66 68 70 72 74 75 77 78 79 80 82
42 42 42 43 44 44 45 45 46 48 48 50 51 51 51 52 52 53 54 56 58 59 58 55 54 54 55 54 53 52 52 53 54 55 56 57 57 57 56 55 54 53 52 51 50 49 47 46 46 46 47 48 50 51 52 54 55 56 57 57 57 58 60 62 63 63 63 63 63 64 64 64 65 66 68 70 71 73 75 76 77 78 79 80 81
44 44 45 45 45 45 46 46 47 48 48 49 50 50 51 52 52 53 54 56 57 58 58 56 54 52 51 51 52 52 53 54 54 55 55 54 54 53 52 52 51 50 49 47 46 45 44 45 45 47 48 50 51 52 54 55 56 56 57 57 58 59 61 63 64 64 64 64 64 65 65 65 66 67 69 71 73 74 76 77 78 79 80 80 81
46 46 46 46 45 45 46 46 47 48 48 49 49 50 51 51 52 52 53 55 57 58 57 56 54 51 50 49 50 50 51 51 51 51 51 50 50 50 49 48 46 45 44 43 43 43 44 46 47 49 50 51 52 53 54 55 56 57 57 57 59 61 62 64 64 64 64 64 65 65 66 66 67 69 71 73 74 75 76 77 79 80 80 81 81
50 49 48 46 46 45 46 47 48 48 48 48 48 48 49 49 49 50 52 54 56 57 57 56 55 54 53 52 52 51 51 50 49 49 48 47 46 45 44 43 42 42 42 42 43 44 45 47 48 49 50 52 53 54 55 56 57 57 58 59 60 62 63 64 65 65 65 65 65 66 67 67 69 70 72 74 75 76 77 78 79 79 80 81 81
53 52 50 47 46 46 46 46 47 48 48 47 47 47 46 46 47 48 50 52 53 53 54 54 54 53 53 52 51 50 49 47 46 45 43 42 41 41 41 41 41 41 42 43 44 45 47 48 49 50 52 53 54 55 56 57 58 59 59 61 62 63 64 65 65 65 65 66 66 67 68 69 70 72 73 75 76 77 78 78 79 80 80 81 81
52 50 48 46 46 46 46 46 46 47 46 46 45 44 44 44 45 46 48 49 49 49 48 48 48 48 47 46 45 44 43 42 41 40 40 39 40 40 40 40 41 41 42 44 45 47 48 49 50 52 53 54 55 57 58 59 60 60 61 63 63 63 65 65 66 66 67 67 68 68 69 71 72 73 74 76 77 78 78 78 79 80 81 81 81
49 46 44 44 44 44 45 45 45 45 44 43 43 42 41 41 41 42 43 43 43 43 42 42 41 41 40 40 39 39 39 38 38 38 39 39 39 40 40 41 42 43 44 45 47 49 50 51 53 54 55 56 57 58 59 60 61 62 63 63 63 64 65 66 66 67 68 69 69 71 72 73 74 74 75 77 78 79 78 79 79 80 81 81 81
46 44 42 42 42 42 43 43 42 42 42 41 41 41 40 39 39 39 39 39 39 39 39 38 38 38 38 38 38 38 39 39 39 39 39 40 40 41 42 43 44 45 46 48 50 51 52 53 55 56 57 58 59 60 61 61 62 63 64 63 63 65 67 67 68 69 69 70 72 73 74 74 74 75 77 78 78 79 79 79 79 80 80 80 80
43 40 39 39 39 40 40 40 39 39 39 39 39 39 39 39 39 39 39 39 39 39 39 39 39 39 39 39 39 39 39 40 40 41 42 42 43 44 45 46 47 48 49 51 52 53 54 55 56 57 58 59 60 61 61 61 62 64 63 63 64 67 68 67 68 70 71 72 74 74 74 74 75 76 77 77 78 78 79 79 79 79 80 80 80
40 38 37 37 37 37 37 37 37 37 37 38 38 39 39 39 39 39 39 39 39 39 39 39 39 39 40 40 40 41 42 43 43 44 45 45 46 46 47 49 50 51 52 53 54 55 56 57 57 58 59 60 60 61 61 62 63 64 63 64 66 67 67 68 69 71 73 74 74 74 74 75 75 76 76 77 78 78 79 79 79 79 80 80 81
38 37 37 36 36 36 36 36 36 35 36 36 37 38 38 39 39 39 40 40 40 40 40 41 41 41 42 42 43 44 45 45 46 46 47 47 48 49 50 50 51 52 53 54 55 56 57 57 58 59 59 60 61 61 62 63 64 64 64 65 66 66 67 69 71 72 73 74 74 74 75 76 76 76 76 77 78 79 79 79 80 80 80 81 81
38 37 36 36 35 35 35 35 35 35 35 36 37 37 38 39 40 41 41 42 42 42 43 43 43 44 44 45 46 46 47 47 48 48 49 49 49 50 51 52 52 53 54 55 55 56 57 58 58 59 59 60 61 62 63 64 64 65 66 67 67 67 69 70 71 72 72 73 73 74 75 76 76 77 78 78 78 79 79 80 80 81 81 82 81
38 37 37 36 36 36 36 36 36 37 37 38 38 39 39 40 40 41 42 42 43 43 44 45 45 46 46 47 47 48 48 49 49 50 50 50 51 51 52 53 53 54 54 55 55 56 57 58 58 59 60 61 62 62 63 64 65 66 67 68 68 68 69 70 70 70 71 72 74 75 76 76 77 79 79 79 79 79 80 80 81 81 82 82 81
39 38 38 37 37 37 37 38 38 39 39 39 39 39 40 40 41 41 42 42 43 44 45 46 47 47 48 49 49 49 50 51 51 51 52 52 52 53 53 54 54 54 55 55 56 57 57 58 58 59 61 62 62 63 64 64 65 67 68 68 68 68 68 68 68 70 71 73 74 76 77 77 78 79 79 79 79 79 80 80 81 82 82 81 81
41 40 39 39 38 38 38 39 39 39 39 39 39 40 40 41 41 42 43 43 44 45 46 47 48 48 49 50 50 51 51 52 52 52 53 53 54 54 54 54 55 55 56 56 57 58 58 59 59 60 61 62 63 64 65 65 66 67 67 67 66 66 67 67 69 70 73 74 75 77 78 78 78 78 78 79 79 80 80 81 81 81 80 80 79
42 42 41 40 40 40 39 39 39 39 39 39 40 41 41 42 42 43 44 44 45 46 47 48 49 49 50 50 51 51 51 52 52 53 54 54 55 55 55 55 56 57 58 58 59 59 60 60 61 61 62 63 64 65 65 65 65 66 66 66 66 67 68 69 70 72 74 75 76 77 78 78 77 78 79 79 80 80 81 81 81 80 79 79 78
43 43 42 42 42 41 41 41 40 40 40 40 41 41 42 42 43 43 44 45 46 47 48 49 49 50 51 52 52 52 53 53 54 55 56 56 56 57 57 57 58 59 59 60 60 60 61 61 61 62 63 64 64 65 65 65 65 66 66 67 68 69 69 71 72 74 75 76 77 77 77 77 78 79 80 80 81 81 81 80 80 79 79 79 77
44 44 44 43 43 43 42 42 42 42 42 42 42 43 43 43 43 43 44 45 45 46 47 49 50 51 52 53 54 55 56 57 57 58 58 59 59 59 60 60 60 61 61 61 61 61 62 62 62 63 64 64 65 65 65 65 66 67 68 69 69 70 71 72 74 75 76 77 77 77 78 78 79 80 81 81 81 81 80 80 80 80 80 79 78
45 45 45 45 45 45 44 44 44 44 44 44 44 44 45 45 45 45 46 46 46 47 48 48 50 51 52 54 55 56 58 59 60 61 62 62 63 63 63 63 63 62 62 62 62 63 63 63 64 64 64 65 65 65 65 66 67 68 69 70 71 71 73 74 75 76 76 77 78 78 79 79 80 81 81 82 82 82 81 81 82 82 81 79 78
46 46 46 46 46 46 46 46 46 46 46 46 47 47 48 48 48 49 49 49 49 50 50 50 51 52 53 54 55 57 58 60 61 63 64 65 65 65 65 65 64 64 64 64 64 64 64 65 65 65 65 66 66 66 67 68 69 70 71 72 72 73 74 75 76 77 78 78 78 79 79 80 81 82 83 83 83 83 83 82 82 82 80 79 78
48 48 48 48 48 48 48 48 48 48 48 49 49 49 50 50 50 51 51 51 52 52 53 53 54 54 55 55 56 57 58 60 61 62 63 65 65 66 65 65 65 65 65 65 64 65 65 66 66 66 67 67 67 67 68 69 70 71 72 73 74 74 75 76 77 78 78 79 79 80 81 81 82 83 84 84 84 83 83 83 83 81 80 79 78
50 50 50 50 50 50 50 50 51 51 52 52 52 53 53 53 53 53 53 54 54 54 55 56 56 57 57 58 58 59 59 60 61 62 63 64 65 65 66 65 66 66 66 66 65 65 65 66 66 67 67 68 68 69 69 70 71 72 73 74 75 75 76 77 78 78 79 80 80 81 82 83 83 84 84 84 84 84 83 83 82 81 80 79 78
53 53 53 53 53 53 53 54 54 55 55 56 56 56 56 56 57 57 57 57 57 58 58 58 59 60 60 60 61 61 61 61 61 62 63 64 65 65 66 66 66 66 66 66 66 66 66 66 67 67 68 68 69 70 70 71 71 72 73 75 76 76 77 77 78 79 80 81 81 82 83 83 84 84 84 84 84 84 84 83 82 81 80 79 78
55 55 55 55 55 56 56 57 57 58 58 58 59 59 59 60 60 60 61 61 61 62 62 62 62 62 63 63 63 63 63 63 63 63 64 64 65 65 66 66 66 66 66 66 66 67 67 67 67 68 69 69 70 71 71 72 72 73 74 76 77 77 78 78 79 80 81 82 82 83 84 84 84 84 84 84 84 84 83 82 82 81 80 79 78
57 58 58 58 58 59 59 60 60 60 61 61 61 62 62 62 63 63 64 64 65 65 66 66 66 66 65 66 66 66 66 66 65 65 65 65 66 66 66 66 66 66 66 66 67 67 68 68 68 69 69 70 71 71 72 73 73 74 75 77 78 78 79 80 81 81 82 83 84 84 84 84 84 84 84 84 84 83 82 82 82 81 80 79 78
60 60 61 61 61 62 62 63 63 63 63 64 64 64 65 65 65 65 66 66 67 68 68 68 68 68 68 69 69 68 68 68 67 67 67 67 67 67 67 67 67 67 67 67 68 68 69 69 70 70 70 71 71 72 72 73 74 75 77 78 79 80 81 81 82 83 83 84 84 84 85 85 85 85 84 84 83 83 83 82 81 81 80 79 78
63 63 63 64 64 65 65 66 66 66 66 67 67 67 67 67 67 67 67 68 68 69 69 70 70 71 71 72 72 71 71 70 70 69 68 68 68 68 68 68 68 68 69 69 69 70 70 70 71 71 71 72 72 73 74 75 76 78 79 81 81 82 82 83 83 84 84 85 85 86 86 86 85 84 84 84 84 83 82 82 81 80 79 78 77
65 65 66 66 67 68 68 69 68 69 69 69 69 69 69 69 70 70 70 70 71 71 71 72 73 73 74 74 74 74 74 73 71 70 69 69 69 69 69 69 70 70 70 71 71 71 72 72 72 73 73 74 75 76 77 78 80 81 82 83 83 84 84 84 84 85 86 86 87 87 86 86 85 85 84 84 84 83 82 81 81 80 79 77 75
67 68 68 69 69 70 70 70 71 71 71 71 71 71 71 72 72 72 72 73 73 73 74 75 76 76 77 77 77 77 76 74 73 71 70 70 70 70 71 71 72 72 72 73 73 74 74 75 75 76 77 78 79 79 80 82 83 84 84 85 85 85 85 85 85 86 87 87 87 87 86 86 85 85 84 84 84 83 82 81 80 79 77 74 72
70 70 71 71 72 72 73 73 73 73 73 74 73 73 73 74 74 75 75 76 76 77 78 78 78 79 79 79 79 78 76 75 74 73 72 72 72 72 73 74 74 75 75 76 77 77 78 78 79 80 80 81 82 82 83 84 85 85 86 87 87 86 86 86 86 87 87 87 87 87 86 86 85 85 84 84 83 82 81 80 78 76 73 70 67
71 72 72 73 73 74 74 75 75 76 76 76 76 75 75 76 77 78 79 79 79 80 80 80 81 81 81 80 79 78 76 75 74 73 73 74 74 75 76 77 77 78 79 80 80 81 81 82 82 83 83 84 84 85 86 86 87 87 87 88 87 87 87 87 87 87 87 87 87 87 86 86 85 85 84 83 82 81 79 77 74 71 68 65 62
72 73 74 74 75 76 76 77 78 78 78 78 78 78 78 79 80 80 81 82 82 82 82 82 83 82 81 80 78 77 75 75 75 75 76 77 77 78 79 80 81 82 82 83 84 84 85 85 86 86 86 87 87 88 88 88 88 88 88 88 88 88 87 87 87 87 87 88 87 87 87 86 85 84 83 82 80 78 75 72 68 65 62 59 57
74 75 75 76 77 78 78 79 79 80 80 80 80 81 81 82 82 83 83 83 84 84 84 84 84 83 81 79 77 76 76 76 77 78 79 80 81 82 84 84 85 85 86 86 87 87 88 88 89 89 89 89 90 90 90 90 89 89 89 88 88 88 88 88 88 88 88 88 88 88 87 86 84 83 81 79 77 73 70 66 62 59 57 54 52
75 76 77 78 79 79 80 80 81 81 82 83 83 84 84 84 84 85 85 85 85 85 85 84 83 82 80 78 77 77 78 79 80 81 83 84 85 86 87 88 88 88 89 89 90 90 90 91 91 91 91 92 92 91 91 91 90 90 89 89 89 89 89 89 89 89 89 88 88 86 85 83 81 80 78 75 72 68 64 60 57 55 53 50 48
77 78 78 79 80 80 81 82 82 83 84 85 86 86 86 86 86 86 86 86 86 86 85 84 82 81 80 80 80 81 82 83 85 86 87 88 89 89 90 90 91 91 92 92 92 92 93 93 93 93 93 93 93 93 92 92 91 91 90 90 90 90 90 90 89 88 87 86 85 83 81 79 77 75 73 69 65 61 58 55 53 51 50 48 46
79 79 80 81 81 82 83 83 84 85 86 87 87 87 87 87 88 88 88 88 87 86 85 84 83 83 83 84 85 86 87 88 89 90 90 91 92 92 93 93 94 94 94 94 95 95 95 96 96 96 95 95 94 94 93 93 92 92 92 91 91 90 89 87 86 85 83 82 80 78 76 74 72 70 66 62 59 55 53 52 50 49 47 46 45
Wind_Direction
272 271 271 272 273 273 273 273 272 272 271 271 271 271 271 271 271 270 270 270 271 272 271 272 273 274 275 275 275 275 275 276 276 277 277 278 279 280 281 283 285 286 288 289 290 291 291 291 292 293 294 295 296 298 298 298 297 297 298 298 299 302 304 304 305 306 308 309 310 311 313 313 314 314 314 315 316 317 318 318 319 320 322 325 327
272 270 270 270 271 272 273 273 273 273 272 271 270 270 270 270 270 271 271 271 271 271 272 272 273 274 274 275 275 275 275 276 277 277 278 278 279 280 282 283 285 286 287 288 289 290 290 291 291 292 293 295 296 297 296 296 296 297 297 298 300 302 303 304 305 306 307 309 310 311 313 313 313 314 314 316 316 317 318 319 320 322 324 326 327
272 272 271 271 271 271 272 272 273 273 272 271 270 269 269 268 269 270 271 272 272 272 272 273 273 274 275 275 275 275 275 276 276 277 277 278 279 281 282 283 285 286 287 288 288 288 289 290 291 292 293 294 295 295 294 295 296 296 297 299 301 302 303 304 305 306 307 309 310 311 313 313 313 314 315 316 317 317 318 319 321 323 325 326 327
270 271 272 271 271 271 270 271 271 272 273 272 272 271 270 269 268 269 270 271 271 272 272 273 274 275 275 275 275 275 276 276 276 277 278 279 280 281 282 283 284 285 286 286 287 287 288 289 290 292 293 294 294 293 293 294 295 296 297 299 301 302 303 304 305 306 307 309 310 311 312 312 313 314 315 316 317 318 319 321 323 324 325 326 327
272 272 272 272 272 272 271 272 272 273 274 274 274 274 272 271 270 269 269 270 270 271 272 273 274 275 275 275 275 275 276 276 276 277 278 279 280 281 282 283 284 284 285 285 285 286 288 289 290 292 292 292 292 292 293 294 295 296 298 300 301 302 303 304 305 306 307 309 310 311 311 312 313 314 315 316 317 318 320 322 323 324 325 326 326
274 274 273 273 273 273 273 273 273 274 275 275 275 275 275 274 273 271 271 270 270 271 272 273 273 274 274 274 275 275 275 276 276 277 278 279 280 281 282 282 283 283 283 283 285 286 287 289 290 291 290 290 291 292 293 294 296 297 299 300 301 303 304 305 305 306 308 309 310 311 311 312 313 314 315 316 317 319 321 323 324 324 325 325 325
274 274 274 274 274 273 273 274 274 275 275 276 276 277 276 276 275 274 272 271 271 271 272 272 273 273 273 274 274 275 275 276 276 277 278 279 280 281 281 281 281 281 282 283 284 286 287 289 289 289 289 290 291 292 293 295 296 298 299 300 302 303 304 304 305 306 308 310 310 311 311 312 313 314 315 317 318 319 321 322 323 324 323 323 323
274 274 274 275 275 275 275 275 275 275 275 276 276 277 277 276 276 275 274 273 272 272 272 272 273 273 274 274 274 275 275 276 277 277 278 279 280 280 280 280 280 281 281 282 284 286 287 288 288 288 289 290 291 293 294 296 296 298 299 301 303 303 304 304 306 307 309 309 310 311 312 313 314 315 316 317 318 320 321 322 322 322 322 321 322
275 275 275 275 276 276 276 276 276 275 275 275 275 276 276 276 276 275 274 273 273 272 272 272 273 273 273 274 274 274 275 276 277 277 277 278 278 279 279 279 279 280 281 283 285 286 287 287 288 289 290 291 293 294 295 296 297 299 301 302 303 303 304 305 307 308 308 309 310 311 312 313 314 315 316 317 319 320 321 321 321 321 321 321 321
278 278 278 278 278 278 278 278 278 277 276 275 275 275 275 275 276 275 274 273 273 273 272 272 272 273 273 273 274 274 274 275 276 276 277 277 277 278 278 278 279 280 283 285 286 287 287 288 289 290 291 293 294 294 295 296 298 300 301 302 302 303 305 306 307 307 308 308 310 312 313 313 314 316 317 318 318 319 319 320 320 320 320 320 320
281 281 282 282 283 282 282 281 280 279 278 277 276 276 275 275 275 276 275 275 274 273 273 273 273 273 273 273 273 274 274 274 275 275 276 276 277 277 278 279 280 282 284 286 287 288 288 289 290 291 293 293 294 294 295 297 299 300 301 302 303 304 305 306 306 306 307 309 311 312 313 314 315 316 317 317 318 318 318 319 319 319 319 319 319
283 284 285 286 286 285 285 284 283 282 281 280 279 278 278 277 276 276 276 276 276 275 275 275 275 274 273 273 273 274 274 274 275 275 276 276 277 278 279 280 282 284 285 287 288 288 289 291 292 293 292 292 293 294 296 298 300 300 301 302 303 304 305 305 306 306 307 309 311 312 313 314 316 316 317 317 317 317 317 318 318 318 318 319 319
285 285 285 286 285 285 284 283 283 282 282 282 281 281 280 280 279 279 279 279 278 278 277 277 277 276 276 276 276 275 276 276 277 277 277 278 279 280 281 282 284 285 286 287 288 290 291 293 292 292 291 292 294 296 298 299 300 301 302 302 303 304 305 305 305 306 308 310 312 312 314 315 315 316 316 316 316 316 317 317 317 318 318 318 319
286 286 286 286 285 285 284 283 283 283 283 283 283 282 281 281 280 281 281 282 282 281 280 278 278 278 278 278 278 278 278 278 278 279 279 280 281 281 282 283 284 286 287 289 290 292 292 292 291 291 292 294 296 298 299 299 300 301 301 302 303 304 305 305 305 306 309 310 312 313 314 314 315 315 315 315 315 315 316 316 317 317 318 318 318
287 288 289 289 288 287 287 286 285 285 284 284 283 283 282 282 282 282 283 284 284 283 282 280 279 278 278 278 278 279 279 279 280 280 281 281 281 281 282 284 285 287 289 291 292 292 291 291 291 292 294 296 297 298 298 299 299 300 300 301 303 304 304 305 306 307 309 310 311 313 313 314 314 315 314 314 314 315 315 315 316 317 317 318 318
288 289 289 289 289 289 289 288 287 286 285 285 284 283 283 283 284 286 286 286 285 285 284 283 281 279 278 278 278 278 278 279 279 280 280 280 281 282 284 286 288 290 291 291 291 291 291 292 293 295 296 296 297 297 297 298 298 299 300 302 303 304 304 305 306 308 309 310 311 312 313 313 314 314 314 313 313 314 314 315 316 316 317 317 318
288 289 288 288 288 288 287 287 287 286 286 285 285 285 285 285 286 287 287 287 287 287 287 286 284 283 281 281 280 280 280 280 280 281 281 283 284 286 288 289 290 290 290 290 291 291 293 294 295 295 295 295 295 296 296 297 298 299 301 303 304 305 305 306 307 307 309 310 311 311 312 312 313 313 312 312 312 313 313 314 315 316 316 316 317
290 289 288 288 287 286 285 285 284 284 284 284 284 285 285 286 287 288 288 288 288 288 288 288 288 287 286 285 285 284 284 284 284 285 285 286 288 288 289 289 289 290 290 291 292 293 293 293 292 293 293 294 295 295 296 297 299 300 303 304 305 305 305 306 306 307 309 310 310 310 310 311 312 312 311 311 311 312 313 314 314 315 315 316 316
291 290 289 287 286 284 284 283 282 281 281 281 281 281 282 284 286 288 288 288 288 288 288 288 288 288 287 287 287 287 287 287 287 287 288 288 288 288 289 289 290 291 291 291 291 290 290 290 291 292 293 293 294 296 297 299 300 303 305 305 305 305 305 305 306 307 309 309 309 309 310 310 311 310 310 310 310 312 313 313 313 314 314 315 316
290 289 289 287 284 283 282 281 280 279 279 279 279 279 281 283 285 286 287 288 287 287 287 287 287 287 287 288 288 288 288 287 287 287 287 288 288 289 289 289 289 289 289 288 289 289 289 290 292 293 293 294 296 298 299 301 303 305 305 304 304 305 304 304 306 307 308 308 309 309 309 309 310 309 309 309 310 311 312 312 313 313 314 314 316
289 288 287 284 282 281 281 280 279 279 279 280 280 281 282 283 285 285 286 287 287 287 287 287 288 288 288 288 287 287 286 286 286 287 287 288 288 288 288 287 287 287 288 288 289 290 291 292 293 294 296 298 300 301 302 303 304 304 304 304 304 304 303 304 306 307 307 308 309 309 308 308 309 308 308 309 310 311 311 312 312 313 313 314 315
289 288 286 283 283 283 282 281 281 281 282 283 283 284 285 286 286 287 287 288 288 288 289 289 290 290 289 289 288 287 288 288 288 288 288 287 287 286 287 287 288 289 290 291 291 292 293 295 296 298 300 301 302 302 303 303 304 303 303 303 303 303 303 305 306 307 307 308 308 307 307 307 308 308 308 309 310 310 311 311 312 312 313 314 315
289 288 287 286 285 285 284 284 284 284 285 286 288 289 290 291 291 291 292 292 292 292 293 293 292 292 291 291 290 290 290 289 289 288 287 287 288 288 289 291 292 293 293 294 295 296 297 298 299 300 301 302 301 302 302 303 302 302 302 302 303 303 304 306 306 306 306 306 306 306 306 307 308 308 308 309 309 309 310 311 311 312 313 314 315
289 289 288 287 287 287 286 287 287 288 289 290 291 292 293 294 294 294 295 295 295 295 294 294 293 293 292 292 291 291 291 290 290 290 290 291 292 293 294 295 295 295 296 296 297 298 299 299 300 300 300 300 300 301 301 301 301 300 302 302 302 303 304 305 305 305 304 304 304 305 306 307 308 308 308 308 308 309 310 310 311 312 313 314 315
290 289 288 288 287 288 288 289 289 290 291 292 293 294 294 295 295 295 295 295 295 295 294 294 294 294 293 293 292 292 292 292 292 292 293 294 295 295 295 295 295 296 296 297 297 298 298 298 298 298 298 298 299 300 300 300 300 301 302 302 301 302 304 304 303 302 302 302 303 304 305 306 307 307 307 307 308 308 309 310 310 312 313 314 315
289 288 288 287 287 287 288 289 289 290 291 292 293 293 294 294 295 294 294 294 294 294 294 293 293 293 292 292 291 291 292 292 292 293 293 293 294 293 294 294 294 295 295 295 295 295 295 296 296 297 297 298 299 299 299 299 300 300 301 300 301 302 302 300 300 300 301 302 303 303 304 305 305 306 306 307 307 308 308 309 310 311 312 314 315
287 287 286 286 286 286 286 287 288 288 289 290 290 291 291 292 292 292 292 293 293 293 292 292 291 291 290 290 290 290 290 290 290 291 291 291 291 291 292 292 292 292 292 293 293 293 294 295 295 296 297 297 297 297 298 298 299 300 299 299 300 299 298 298 298 299 300 301 302 302 303 304 305 305 305 306 307 307 308 309 310 311 312 313 313
287 286 286 285 285 285 285 286 286 287 287 288 288 288 289 289 289 290 291 291 291 291 291 291 290 289 289 289 288 288 288 288 288 288 288 289 289 290 290 290 290 290 290 291 292 292 293 293 294 295 295 296 296 296 297 297 298 298 297 297 297 297 297 297 298 299 300 300 301 302 303 304 304 305 305 306 306 307 308 309 310 310 311 312 312
287 286 286 286 285 284 284 284 284 284 285 286 286 286 287 287 288 288 289 289 289 289 289 288 288 288 288 287 287 287 287 286 286 286 287 287 287 287 287 287 288 288 289 289 290 291 292 293 294 294 295 295 295 295 296 295 295 294 294 295 295 296 296 297 298 299 299 300 301 302 303 303 304 304 305 306 306 307 307 308 309 310 310 310 311
286 285 285 284 283 282 281 281 281 282 282 283 283 284 285 286 286 287 287 287 287 287 287 286 286 286 286 285 285 285 285 284 284 285 285 285 285 285 285 285 286 287 288 288 289 290 291 292 293 294 294 294 294 294 293 293 292 292 293 294 295 296 297 298 299 299 299 300 300 301 302 303 303 304 304 305 305 306 307 308 308 309 309 309 310
284 284 283 282 282 281 280 280 280 279 279 280 281 282 283 284 285 285 286 286 286 286 286 286 285 285 285 284 284 283 283 282 283 283 283 283 284 284 284 285 286 287 288 289 290 291 292 292 292 292 292 292 292 291 291 291 291 292 294 295 297 298 298 298 298 298 298 299 300 300 301 302 302 303 303 304 305 306 306 307 308 308 308 309 310
281 282 282 282 282 281 280 280 279 278 278 279 279 280 281 282 283 284 284 284 285 285 285 285 285 285 284 284 283 283 283 283 283 283 283 283 283 283 284 285 286 287 288 289 290 291 291 291 291 291 291 290 290 290 291 291 292 293 295 296 297 298 297 297 297 297 298 298 299 300 300 301 302 302 303 303 304 305 306 306 306 306 307 308 309
280 280 281 281 281 281 281 280 279 279 279 279 279 280 281 281 282 282 282 282 282 282 283 283 283 283 283 283 283 283 283 283 283 283 283 283 283 283 284 284 285 287 288 289 290 290 290 289 290 290 290 290 291 291 292 292 293 293 295 296 296 297 297 297 297 297 298 298 299 299 300 300 301 301 302 303 304 304 305 305 305 305 306 307 307
278 279 280 280 281 281 281 281 280 280 281 281 282 284 284 285 286 285 285 285 284 283 283 283 283 283 283 282 282 282 282 282 282 282 282 283 283 283 284 285 286 287 288 289 289 289 289 289 290 290 291 291 291 292 292 292 292 293 294 295 296 297 297 297 297 297 297 298 299 299 300 300 301 301 302 303 303 303 303 304 304 304 305 306 306
277 278 279 279 279 280 280 280 280 281 282 283 284 286 287 288 289 289 288 288 288 288 287 287 286 286 285 284 284 284 283 283 283 283 283 283 283 284 284 285 286 287 287 288 288 288 289 289 290 291 291 292 292 292 292 292 293 293 294 295 296 297 297 297 297 297 297 298 299 299 300 300 301 301 302 302 302 302 302 302 302 303 304 305 305
277 277 278 279 279 279 279 279 279 280 281 282 283 284 286 286 287 287 287 288 288 289 289 289 289 288 288 287 287 286 286 285 285 284 284 284 284 285 285 285 286 286 287 287 288 289 289 290 291 291 292 292 292 293 293 293 293 293 294 295 296 297 297 297 297 298 298 299 299 300 300 300 300 301 301 301 301 301 301 301 302 302 303 304 304
276 276 277 278 279 279 279 280 280 280 280 281 282 283 283 284 284 284 285 285 286 287 288 288 289 289 289 289 289 289 288 287 287 286 285 285 285 285 285 285 285 285 286 287 287 288 289 290 290 291 292 292 293 293 293 293 294 294 295 296 296 297 298 298 298 299 299 299 299 299 299 300 299 299 299 299 299 300 300 300 301 302 302 303 303
274 275 276 277 277 278 278 278 279 279 280 281 281 282 283 284 284 284 284 284 285 286 287 288 289 289 290 291 291 291 290 290 289 287 286 285 285 285 284 284 285 285 286 286 287 288 289 290 290 291 292 292 293 293 294 294 295 295 296 297 297 298 299 299 299 299 299 299 298 298 298 298 298 298 298 298 298 299 299 300 300 301 301 301 302
274 274 275 276 276 277 277 277 278 279 280 281 282 283 284 284 285 285 285 286 287 288 289 290 290 291 291 292 292 292 292 292 291 289 288 287 286 285 285 285 285 285 286 287 288 289 290 290 291 291 292 292 293 294 294 295 296 296 297 297 298 298 299 299 298 298 298 298 297 297 297 297 297 297 297 297 298 298 298 299 299 299 300 300 300
274 274 275 276 276 277 277 278 279 280 281 282 283 284 285 285 286 286 286 287 288 289 290 291 292 292 292 292 293 293 294 293 293 291 290 289 287 286 286 286 286 287 287 288 289 289 290 290 291 291 292 293 293 294 295 295 296 296 297 297 298 298 298 298 298 297 297 297 297 297 296 296 296 296 296 297 297 297 297 297 297 298 298 298 299
275 276 276 277 278 278 279 280 281 281 282 283 284 284 285 286 286 287 287 288 288 289 290 291 291 292 292 293 294 294 295 294 294 293 291 290 289 288 288 288 288 288 289 289 289 290 290 291 292 292 293 294 294 294 295 295 295 296 296 297 298 298 298 298 297 296 296 296 296 295 295 295 295 296 296 296 295 295 296 296 296 297 297 297 297
277 278 278 279 280 280 281 282 283 283 284 285 285 286 286 287 287 288 288 289 290 290 291 291 292 292 293 294 294 295 295 295 294 293 291 290 289 288 288 288 288 288 289 289 290 291 292 293 293 293 294 294 294 294 295 295 296 296 297 298 298 298 298 297 297 296 295 295 295 294 295 295 295 295 294 294 295 295 295 295 295 295 295 295 295
278 279 279 280 281 281 282 283 284 285 285 286 287 287 287 288 288 289 290 290 291 291 292 292 293 293 294 294 295 295 295 295 294 292 291 290 289 288 288 288 289 290 291 292 292 293 293 294 294 294 294 294 295 295 296 296 297 297 298 298 299 298 298 297 296 295 294 294 294 294 294 294 294 294 294 294 294 294 294 294 294 294 294 294 294
280 280 281 281 282 282 283 284 285 285 286 286 287 287 288 288 289 290 290 291 291 292 292 293 293 294 294 295 295 295 295 294 293 292 290 289 289 289 289 290 291 292 293 293 293 293 294 294 294 294 295 295 296 296 297 297 298 298 298 298 298 298 297 296 295 294 294 294 294 294 293 293 293 294 294 293 293 293 293 293 293 293 293 293 293
280 281 282 282 283 283 284 284 285 285 286 286 287 287 288 289 290 290 291 291 291 292 292 293 293 294 294 295 295 295 294 293 292 292 291 291 291 291 292 293 293 293 293 293 293 294 294 294 295 296 296 297 297 297 298 298 298 298 298 297 297 296 296 295 294 294 293 293 293 293 293 293 293 293 293 292 292 292 292 292 292 292 292 292 292
280 281 282 282 283 283 284 284 284 285 285 286 287 288 289 289 290 290 290 291 291 292 292 293 294 294 295 295 294 294 293 293 292 292 292 292 292 292 293 293 293 293 293 293 294 294 295 295 296 297 297 298 298 298 298 298 297 297 297 296 296 295 294 294 293 293 293 293 293 293 293 293 292 292 292 292 291 291 291 291 291 291 291 291 291
280 280 281 281 282 283 283 283 284 285 286 287 287 288 288 289 289 289 290 290 291 291 292 293 294 294 295 294 294 293 292 292 291 291 291 291 291 292 292 293 293 294 294 294 295 296 296 297 297 298 298 298 298 298 298 297 297 296 296 295 295 294 294 294 293 293 293 293 293 292 292 292 292 291 291 291 291 291 291 291 290 290 290 290 289
279 280 281 281 282 282 283 283 284 285 286 286 287 287 288 288 288 288 289 290 290 291 292 293 293 294 294 293 292 291 290 290 290 290 290 291 291 292 293 294 294 295 296 296 297 297 297 298 298 298 298 298 298 297 297 296 296 295 295 295 294 294 294 294 293 293 292 292 292 292 291 291 291 291 290 290 290 290 290 289 289 288 288 288 287
279 280 281 281 282 282 283 284 284 285 285 286 286 286 287 287 288 288 289 290 290 291 292 292 292 292 292 291 290 289 289 289 290 290 291 292 292 293 294 295 296 296 297 297 298 298 298 298 298 298 298 297 297 296 296 296 295 295 295 295 294 294 293 293 292 292 291 291 291 291 291 290 290 290 289 289 289 288 288 287 286 286 286 286 285
279 280 281 281 282 282 283 283 284 284 285 285 286 286 287 287 288 288 289 290 290 290 291 290 290 290 289 289 289 290 290 291 291 292 293 293 294 295 296 297 297 298 298 298 298 298 298 298 298 297 297 297 296 296 296 295 295 295 295 294 293 293 292 292 291 291 291 291 291 290 290 290 289 288 288 287 287 286 286 285 284 284 284 284 283
279 280 280 281 281 282 283 283 284 284 285 285 286 286 287 287 288 289 289 289 289 289 289 289 289 289 289 290 290 291 292 293 294 294 295 296 296 297 297 298 298 298 298 298 298 298 298 297 297 297 297 296 296 296 296 296 295 295 294 293 293 292 292 291 291 291 291 291 290 290 289 288 287 287 287 286 285 284 283 282 282 282 282 282 282
Height
5797 5797 5797 5797 5797 5797 5797 5796 5796 5796 5796 5795 5795 5795 5795 5795 5794 5794 5794 5794 5795 5794 5792 5790 5789 5789 5790 5789 5788 5787 5786 5785 5784 5782 5781 5780 5778 5776 5775 5774 5772 5770 5768 5767 5765 5763 5760 5758 5756 5754 5752 5750 5749 5747 5745 5742 5739 5737 5734 5731 5729 5727 5724 5721 5716 5712 5709 5706 5702 5699 5696 5692 5687 5683 5679 5674 5669 5664 5660 5655 5650 5646 5643 5639 5633
5790 5790 5791 5791 5791 5791 5791 5791 5791 5791 5790 5790 5790 5789 5789 5789 5788 5787 5787 5788 5788 5787 5785 5784 5783 5783 5783 5783 5782 5781 5780 5779 5778 5776 5775 5773 5771 5770 5769 5767 5766 5764 5762 5761 5759 5756 5754 5752 5750 5748 5746 5745 5743 5741 5739 5736 5734 5731 5728 5726 5723 5721 5719 5715 5712 5707 5703 5700 5697 5693 5690 5686 5682 5677 5673 5669 5665 5659 5655 5650 5644 5639 5636 5632 5628
5785 5785 5785 5785 5785 5785 5785 5785 5785 5785 5784 5784 5784 5784 5783 5783 5782 5782 5781 5781 5781 5780 5779 5778 5777 5777 5776 5776 5775 5774 5773 5773 5772 5770 5768 5766 5764 5763 5762 5761 5759 5758 5756 5754 5752 5750 5748 5746 5744 5742 5741 5739 5737 5735 5733 5730 5728 5726 5723 5720 5718 5716 5713 5710 5707 5703 5699 5695 5691 5688 5684 5680 5676 5672 5668 5664 5660 5655 5650 5645 5640 5633 5629 5626 5622
5781 5781 5780 5780 5779 5779 5779 5778 5778 5778 5778 5777 5777 5777 5777 5777 5777 5776 5775 5775 5774 5773 5772 5771 5771 5770 5770 5769 5768 5767 5767 5766 5765 5764 5762 5760 5758 5757 5755 5754 5753 5751 5750 5748 5746 5744 5742 5740 5738 5736 5735 5733 5731 5729 5727 5724 5722 5720 5717 5715 5712 5710 5707 5704 5701 5698 5694 5690 5686 5683 5679 5675 5671 5667 5663 5659 5655 5651 5645 5640 5635 5629 5623 5620 5616
5776 5776 5775 5775 5774 5773 5773 5772 5772 5771 5771 5771 5771 5770 5770 5770 5770 5770 5770 5769 5767 5766 5765 5765 5765 5764 5763 5762 5761 5760 5760 5759 5758 5756 5755 5753 5752 5750 5749 5748 5746 5745 5743 5741 5739 5737 5736 5734 5732 5731 5729 5727 5725 5723 5721 5718 5716 5714 5711 5709 5707 5704 5701 5698 5695 5692 5689 5685 5681 5677 5674 5670 5665 5662 5658 5654 5650 5646 5640 5634 5629 5624 5618 5614 5609
5771 5771 5770 5769 5769 5767 5767 5766 5765 5765 5765 5764 5764 5764 5763 5763 5763 5763 5763 5762 5761 5759 5759 5759 5758 5757 5756 5755 5754 5753 5753 5752 5751 5750 5748 5746 5745 5744 5743 5741 5740 5738 5736 5735 5733 5731 5730 5728 5727 5725 5723 5721 5719 5716 5714 5712 5710 5708 5705 5703 5701 5698 5696 5692 5689 5686 5683 5679 5675 5671 5668 5664 5660 5656 5652 5649 5646 5642 5637 5629 5622 5617 5612 5609 5606
5765 5765 5764 5764 5763 5762 5761 5760 5759 5759 5758 5758 5757 5757 5756 5756 5756 5756 5756 5755 5754 5753 5752 5752 5751 5750 5749 5748 5747 5746 5745 5744 5743 5743 5741 5740 5738 5737 5736 5735 5733 5731 5730 5729 5727 5726 5724 5723 5721 5719 5717 5715 5712 5710 5708 5706 5703 5701 5699 5697 5695 5692 5689 5686 5683 5679 5676 5673 5669 5666 5662 5658 5655 5651 5647 5643 5639 5636 5633 5627 5620 5613 5607 5604 5603
5759 5758 5757 5757 5756 5755 5755 5754 5753 5752 5752 5751 5751 5750 5750 5749 5748 5748 5748 5748 5747 5746 5745 5744 5744 5743 5742 5741 5740 5739 5738 5737 5736 5736 5734 5733 5732 5731 5729 5728 5726 5725 5724 5723 5721 5720 5719 5717 5714 5712 5710 5708 5706 5704 5702 5699 5697 5695 5693 5691 5689 5686 5683 5680 5676 5672 5669 5666 5663 5660 5656 5652 5649 5645 5641 5637 5633 5628 5625 5622 5617 5613 5606 5600 5597
5753 5752 5751 5750 5749 5749 5748 5747 5746 5746 5745 5744 5744 5743 5743 5742 5742 5741 5741 5741 5740 5739 5738 5737 5737 5736 5735 5734 5733 5732 5732 5731 5729 5728 5727 5726 5725 5724 5723 5721 5719 5718 5718 5717 5716 5714 5712 5710 5708 5706 5704 5702 5700 5698 5695 5693 5691 5689 5687 5685 5682 5679 5676 5673 5669 5666 5663 5660 5657 5654 5650 5646 5643 5640 5635 5631 5627 5623 5619 5615 5611 5607 5603 5596 5591
5747 5746 5745 5744 5744 5743 5742 5741 5740 5739 5738 5738 5737 5736 5736 5735 5735 5734 5734 5734 5733 5732 5731 5731 5730 5729 5728 5727 5726 5725 5725 5724 5722 5721 5720 5719 5718 5717 5716 5714 5713 5713 5712 5711 5709 5707 5705 5703 5701 5699 5697 5695 5693 5691 5689 5687 5685 5683 5681 5679 5676 5673 5669 5666 5663 5659 5656 5653 5651 5647 5643 5640 5637 5633 5629 5625 5621 5617 5613 5610 5606 5601 5598 5594 5587
5741 5740 5739 5739 5738 5737 5736 5735 5734 5733 5732 5731 5731 5730 5729 5729 5728 5728 5727 5726 5726 5725 5724 5723 5723 5722 5721 5720 5719 5718 5717 5717 5715 5714 5713 5712 5711 5710 5709 5708 5708 5707 5706 5705 5703 5701 5699 5697 5695 5693 5691 5689 5687 5685 5683 5681 5680 5677 5675 5672 5669 5666 5663 5659 5656 5653 5650 5647 5644 5641 5637 5633 5630 5626 5622 5618 5615 5611 5607 5604 5600 5596 5592 5589 5585
5735 5735 5734 5733 5732 5731 5730 5729 5728 5727 5726 5725 5724 5723 5723 5722 5721 5721 5720 5719 5718 5717 5717 5716 5715 5714 5713 5713 5712 5711 5710 5709 5708 5707 5706 5705 5704 5704 5703 5703 5702 5701 5699 5698 5696 5694 5692 5690 5688 5686 5684 5682 5681 5679 5677 5675 5673 5671 5668 5665 5662 5660 5656 5653 5650 5646 5643 5640 5637 5634 5631 5626 5623 5619 5616 5612 5608 5605 5601 5597 5594 5589 5585 5581 5578
5729 5729 5728 5727 5726 5725 5724 5723 5722 5721 5720 5719 5718 5717 5716 5715 5714 5714 5713 5712 5711 5710 5709 5708 5707 5706 5705 5704 5704 5704 5702 5701 5700 5700 5699 5699 5698 5697 5697 5696 5695 5694 5692 5691 5689 5687 5685 5683 5681 5679 5677 5676 5675 5673 5671 5669 5667 5664 5662 5659 5656 5653 5650 5647 5643 5640 5636 5633 5629 5627 5624 5620 5616 5613 5610 5607 5603 5599 5595 5591 5587 5582 5577 5572 5568
5723 5723 5722 5721 5721 5720 5718 5717 5716 5714 5713 5712 5711 5710 5709 5708 5707 5706 5706 5704 5703 5702 5701 5701 5700 5699 5698 5697 5696 5696 5695 5694 5693 5693 5693 5692 5692 5691 5690 5689 5688 5686 5685 5683 5681 5680 5678 5676 5674 5673 5671 5670 5668 5667 5665 5662 5660 5658 5655 5653 5650 5647 5644 5640 5636 5633 5629 5626 5622 5619 5616 5613 5610 5607 5604 5600 5596 5593 5589 5586 5581 5576 5571 5565 5560
5717 5717 5717 5716 5715 5714 5713 5712 5710 5709 5707 5706 5704 5703 5702 5701 5700 5699 5699 5697 5696 5695 5695 5694 5693 5692 5691 5690 5690 5689 5689 5688 5688 5687 5686 5686 5685 5684 5683 5682 5680 5679 5677 5676 5674 5673 5671 5670 5668 5666 5665 5663 5662 5660 5658 5656 5654 5651 5649 5647 5644 5641 5637 5633 5629 5626 5622 5619 5616 5612 5609 5607 5604 5601 5597 5594 5590 5586 5582 5579 5575 5570 5565 5559 5552
5712 5712 5711 5710 5709 5708 5707 5705 5704 5703 5701 5700 5698 5697 5696 5695 5694 5693 5692 5691 5690 5689 5688 5688 5687 5686 5685 5684 5684 5683 5682 5682 5681 5680 5679 5678 5677 5676 5675 5674 5673 5671 5670 5669 5667 5666 5664 5663 5661 5660 5658 5657 5655 5654 5652 5650 5647 5645 5642 5640 5637 5634 5630 5626 5622 5619 5615 5612 5609 5606 5603 5600 5597 5594 5591 5587 5583 5579 5575 5571 5567 5563 5558 5553 5547
5706 5706 5705 5703 5702 5701 5699 5698 5697 5696 5694 5693 5692 5691 5689 5688 5687 5686 5686 5684 5683 5682 5681 5681 5681 5680 5680 5679 5678 5677 5676 5675 5674 5673 5672 5671 5670 5669 5668 5667 5666 5664 5663 5662 5661 5659 5658 5656 5655 5654 5652 5651 5649 5647 5645 5643 5641 5638 5636 5633 5630 5626 5622 5619 5615 5612 5609 5606 5603 5600 5597 5594 5591 5588 5584 5580 5577 5573 5569 5564 5560 5556 5551 5547 5542
5700 5699 5698 5697 5696 5694 5693 5692 5690 5689 5687 5686 5685 5684 5683 5681 5680 5679 5679 5678 5676 5675 5675 5674 5674 5674 5673 5672 5672 5671 5669 5668 5668 5667 5666 5665 5663 5662 5661 5660 5659 5658 5657 5656 5654 5653 5652 5650 5649 5648 5646 5644 5642 5640 5638 5636 5634 5631 5628 5626 5622 5618 5615 5611 5608 5605 5602 5600 5596 5593 5590 5587 5584 5581 5577 5573 5569 5566 5562 5557 5553 5549 5544 5539 5535
5694 5692 5691 5690 5689 5688 5687 5685 5683 5682 5681 5680 5678 5677 5676 5675 5674 5673 5672 5671 5670 5669 5668 5668 5667 5666 5666 5666 5665 5664 5663 5662 5661 5660 5659 5658 5657 5656 5655 5654 5653 5652 5650 5649 5648 5647 5646 5645 5643 5642 5640 5638 5636 5634 5631 5629 5626 5624 5621 5618 5615 5611 5608 5604 5601 5599 5596 5593 5590 5587 5584 5581 5577 5574 5570 5566 5562 5558 5554 5550 5545 5541 5537 5532 5527
5688 5686 5685 5684 5682 5681 5680 5679 5677 5676 5674 5673 5672 5671 5670 5669 5668 5668 5666 5665 5664 5663 5662 5662 5661 5660 5659 5658 5658 5657 5656 5655 5654 5653 5652 5651 5650 5649 5649 5648 5647 5646 5645 5644 5642 5641 5640 5638 5637 5635 5633 5631 5629 5627 5624 5621 5619 5616 5614 5611 5608 5604 5601 5598 5595 5592 5589 5586 5583 5580 5577 5574 5570 5567 5563 5558 5554 5550 5546 5542 5538 5533 5529 5524 5520
5682 5680 5679 5678 5676 5675 5674 5673 5671 5670 5669 5668 5667 5666 5665 5664 5663 5662 5661 5660 5659 5658 5656 5656 5655 5654 5653 5652 5651 5650 5649 5648 5648 5647 5646 5646 5645 5644 5643 5642 5641 5640 5639 5638 5636 5635 5633 5631 5630 5628 5625 5623 5621 5619 5617 5614 5612 5609 5607 5604 5601 5597 5594 5591 5588 5585 5582 5578 5575 5572 5570 5567 5563 5559 5555 5550 5546 5542 5538 5534 5529 5525 5521 5517 5512
5676 5675 5673 5672 5671 5670 5669 5668 5666 5665 5664 5663 5662 5661 5660 5659 5658 5657 5656 5655 5654 5653 5651 5651 5650 5649 5648 5647 5646 5645 5644 5643 5642 5642 5641 5640 5639 5639 5638 5636 5635 5634 5633 5631 5630 5628 5626 5624 5622 5620 5618 5616 5614 5612 5610 5607 5605 5602 5599 5597 5594 5590 5587 5584 5581 5577 5574 5571 5568 5565 5562 5559 5555 5551 5546 5542 5538 5534 5530 5526 5521 5517 5512 5508 5504
5670 5669 5668 5667 5666 5665 5664 5663 5662 5661 5660 5659 5658 5657 5656 5655 5654 5653 5651 5650 5649 5648 5647 5646 5645 5644 5643 5642 5641 5640 5639 5638 5637 5636 5636 5635 5634 5633 5632 5630 5629 5628 5626 5624 5622 5621 5619 5617 5615 5613 5611 5609 5607 5605 5603 5601 5598 5595 5592 5590 5587 5583 5580 5577 5573 5569 5566 5563 5560 5557 5554 5551 5547 5543 5538 5534 5530 5526 5523 5518 5514 5509 5504 5499 5495
5665 5664 5663 5662 5661 5660 5660 5659 5658 5657 5656 5655 5654 5653 5651 5650 5649 5648 5647 5646 5644 5643 5642 5641 5640 5639 5638 5637 5636 5635 5634 5633 5632 5631 5630 5629 5627 5626 5625 5624 5622 5621 5619 5617 5615 5614 5612 5610 5608 5606 5605 5602 5601 5599 5597 5595 5592 5588 5585 5583 5579 5575 5572 5569 5565 5562 5559 5555 5552 5549 5546 5543 5539 5535 5530 5526 5522 5518 5515 5510 5507 5502 5496 5491 5486
5660 5659 5658 5657 5656 5655 5655 5654 5653 5652 5651 5650 5649 5648 5647 5646 5645 5643 5642 5641 5640 5639 5637 5636 5635 5634 5633 5632 5631 5629 5628 5627 5626 5625 5623 5622 5621 5620 5619 5617 5616 5614 5613 5611 5609 5607 5605 5603 5602 5600 5598 5596 5594 5592 5590 5587 5584 5581 5578 5575 5571 5568 5565 5562 5558 5554 5551 5548 5545 5541 5538 5535 5531 5527 5523 5519 5515 5511 5507 5502 5498 5494 5489 5483 5477
5654 5653 5652 5652 5651 5650 5649 5648 5648 5647 5646 5645 5644 5643 5642 5641 5640 5639 5638 5636 5635 5634 5633 5632 5630 5629 5628 5627 5626 5624 5623 5622 5620 5619 5618 5617 5615 5614 5613 5611 5609 5608 5606 5605 5603 5601 5599 5597 5595 5593 5592 5590 5588 5585 5583 5580 5577 5574 5571 5567 5564 5561 5558 5554 5550 5547 5544 5540 5537 5534 5531 5527 5524 5520 5516 5512 5507 5503 5499 5494 5490 5486 5482 5477 5471
5648 5648 5647 5646 5645 5644 5643 5643 5642 5641 5640 5639 5639 5638 5637 5636 5635 5634 5633 5631 5630 5629 5628 5627 5626 5624 5623 5622 5621 5619 5618 5616 5615 5614 5612 5611 5610 5608 5607 5605 5603 5602 5600 5598 5596 5594 5592 5590 5589 5587 5585 5583 5581 5578 5575 5572 5569 5566 5562 5559 5556 5553 5550 5547 5543 5540 5537 5533 5530 5526 5523 5520 5516 5512 5508 5504 5500 5495 5492 5487 5482 5478 5474 5470 5465
5642 5642 5641 5640 5639 5639 5638 5637 5636 5635 5634 5634 5633 5632 5631 5630 5629 5628 5627 5626 5625 5624 5623 5621 5620 5619 5618 5617 5615 5614 5613 5611 5609 5608 5606 5605 5604 5602 5601 5599 5597 5595 5593 5591 5590 5588 5586 5584 5582 5580 5578 5576 5573 5570 5567 5564 5561 5557 5554 5551 5549 5545 5542 5539 5536 5533 5529 5526 5522 5519 5515 5512 5508 5503 5499 5496 5491 5487 5483 5479 5475 5470 5466 5462 5458
5637 5636 5635 5635 5634 5633 5632 5631 5630 5629 5629 5628 5627 5626 5626 5625 5624 5623 5622 5621 5620 5618 5617 5616 5614 5613 5612 5611 5610 5608 5607 5605 5603 5602 5600 5599 5597 5596 5594 5592 5590 5588 5586 5585 5583 5581 5579 5577 5575 5573 5570 5567 5565 5562 5558 5555 5552 5549 5546 5543 5540 5537 5534 5531 5529 5525 5521 5518 5515 5511 5507 5504 5500 5495 5491 5487 5483 5479 5475 5471 5467 5462 5458 5453 5449
5630 5629 5629 5628 5627 5626 5626 5625 5624 5623 5623 5622 5621 5620 5619 5619 5618 5616 5616 5615 5614 5612 5611 5610 5608 5607 5606 5605 5603 5602 5600 5598 5597 5595 5594 5592 5590 5589 5587 5585 5583 5581 5579 5577 5576 5573 5572 5570 5568 5565 5562 5559 5557 5553 5550 5547 5544 5540 5538 5535 5532 5529 5526 5523 5520 5517 5513 5510 5507 5503 5499 5496 5491 5487 5483 5479 5475 5471 5467 5463 5458 5453 5449 5444 5440
5624 5623 5623 5622 5621 5620 5619 5618 5618 5617 5616 5615 5615 5614 5613 5612 5611 5610 5609 5608 5607 5606 5605 5603 5602 5601 5600 5598 5597 5596 5594 5592 5590 5589 5587 5585 5583 5582 5580 5578 5576 5574 5572 5570 5568 5566 5565 5562 5560 5557 5554 5551 5548 5545 5541 5538 5535 5532 5529 5526 5523 5521 5518 5515 5512 5509 5505 5503 5499 5495 5492 5488 5483 5479 5475 5471 5466 5462 5458 5454 5450 5445 5440 5436 5432
5617 5617 5616 5615 5615 5614 5613 5612 5612 5611 5610 5610 5608 5607 5606 5605 5604 5603 5602 5601 5600 5599 5598 5596 5595 5594 5593 5591 5590 5589 5587 5585 5583 5581 5580 5578 5576 5574 5573 5571 5569 5567 5564 5563 5561 5559 5557 5554 5551 5549 5546 5542 5540 5536 5533 5530 5526 5523 5520 5517 5515 5512 5510 5507 5504 5501 5498 5494 5491 5487 5484 5480 5475 5471 5467 5463 5458 5453 5449 5445 5441 5436 5432 5428 5424
5610 5610 5610 5609 5609 5608 5607 5607 5606 5605 5605 5604 5603 5602 5601 5599 5598 5597 5595 5594 5593 5591 5590 5589 5587 5586 5585 5583 5582 5581 5579 5578 5576 5574 5572 5570 5568 5566 5565 5563 5562 5559 5557 5556 5554 5551 5548 5545 5543 5540 5537 5534 5531 5527 5524 5521 5517 5514 5511 5509 5506 5504 5501 5498 5496 5492 5489 5486 5482 5479 5475 5471 5467 5462 5458 5454 5450 5445 5440 5436 5432 5427 5424 5420 5416
5604 5603 5603 5603 5602 5602 5601 5601 5600 5599 5599 5598 5597 5596 5595 5593 5592 5591 5589 5588 5586 5584 5583 5582 5580 5578 5577 5575 5574 5573 5571 5569 5567 5565 5563 5561 5560 5558 5557 5555 5553 5551 5549 5547 5544 5541 5539 5536 5534 5531 5528 5525 5522 5518 5515 5512 5508 5505 5503 5500 5498 5495 5493 5489 5486 5483 5480 5477 5473 5470 5466 5462 5458 5453 5449 5445 5441 5436 5432 5427 5423 5419 5416 5412 5408
5596 5596 5596 5595 5595 5595 5594 5594 5593 5592 5592 5591 5590 5589 5587 5586 5585 5584 5582 5581 5579 5577 5576 5574 5572 5571 5569 5567 5565 5564 5562 5561 5559 5556 5554 5552 5550 5549 5548 5547 5545 5542 5540 5538 5535 5532 5529 5527 5524 5521 5518 5515 5513 5509 5506 5503 5500 5497 5494 5491 5489 5487 5484 5481 5477 5474 5470 5468 5464 5461 5456 5452 5448 5444 5440 5436 5432 5427 5423 5418 5414 5411 5407 5404 5400
5589 5589 5588 5588 5588 5587 5587 5586 5586 5585 5584 5584 5583 5582 5581 5580 5578 5577 5575 5574 5572 5571 5569 5566 5564 5563 5561 5559 5557 5555 5553 5552 5550 5548 5545 5543 5541 5539 5539 5537 5535 5532 5530 5528 5526 5523 5520 5517 5515 5512 5509 5506 5504 5501 5497 5494 5491 5488 5485 5482 5480 5477 5475 5472 5468 5464 5461 5458 5454 5450 5446 5442 5438 5434 5430 5426 5422 5417 5413 5409 5406 5402 5399 5396 5392
5581 5581 5581 5580 5580 5580 5579 5579 5579 5578 5577 5576 5576 5574 5573 5572 5571 5569 5568 5566 5564 5563 5561 5559 5557 5555 5553 5551 5549 5547 5545 5543 5541 5539 5536 5534 5532 5530 5529 5527 5525 5523 5520 5518 5516 5514 5512 5508 5505 5502 5500 5497 5494 5491 5488 5485 5482 5479 5476 5473 5470 5467 5465 5462 5458 5454 5450 5447 5443 5440 5436 5432 5428 5424 5420 5416 5412 5407 5404 5400 5397 5393 5390 5387 5384
5573 5573 5573 5572 5572 5572 5571 5571 5570 5570 5569 5568 5567 5566 5565 5564 5562 5561 5560 5558 5556 5554 5552 5551 5548 5546 5544 5543 5541 5539 5537 5535 5532 5530 5528 5525 5523 5521 5519 5517 5515 5513 5511 5509 5506 5504 5503 5500 5496 5493 5490 5487 5484 5481 5478 5476 5473 5469 5466 5463 5459 5457 5454 5451 5448 5444 5440 5436 5433 5429 5425 5421 5417 5413 5409 5405 5402 5398 5394 5391 5388 5384 5381 5378 5375
5565 5565 5565 5564 5564 5564 5563 5562 5562 5561 5560 5560 5558 5557 5557 5555 5554 5553 5551 5550 5548 5546 5544 5542 5540 5538 5536 5534 5532 5530 5529 5527 5524 5522 5519 5516 5514 5512 5509 5508 5506 5504 5501 5499 5496 5494 5493 5490 5487 5484 5480 5477 5474 5471 5468 5465 5462 5459 5455 5452 5449 5446 5444 5441 5437 5433 5429 5426 5422 5418 5415 5411 5406 5403 5399 5396 5392 5388 5385 5381 5378 5375 5372 5369 5366
5557 5557 5556 5556 5555 5554 5554 5554 5553 5552 5552 5551 5549 5549 5548 5546 5545 5544 5542 5541 5539 5537 5535 5533 5531 5529 5527 5525 5523 5521 5519 5517 5515 5513 5510 5508 5505 5503 5501 5499 5497 5494 5492 5489 5486 5484 5482 5480 5477 5474 5471 5468 5464 5461 5458 5454 5451 5448 5445 5442 5439 5436 5434 5430 5427 5422 5418 5415 5411 5407 5404 5400 5396 5392 5389 5385 5382 5378 5375 5372 5368 5365 5363 5360 5356
5549 5548 5547 5547 5546 5545 5545 5544 5543 5543 5542 5541 5540 5539 5538 5537 5536 5534 5533 5531 5529 5527 5526 5524 5522 5520 5518 5515 5514 5512 5510 5507 5505 5503 5501 5498 5496 5494 5492 5489 5487 5485 5482 5479 5476 5474 5472 5470 5467 5464 5461 5458 5454 5451 5448 5444 5441 5438 5435 5432 5429 5427 5423 5420 5416 5411 5407 5404 5400 5396 5392 5389 5385 5382 5378 5375 5371 5368 5365 5362 5358 5355 5352 5350 5347
5540 5539 5539 5538 5537 5537 5536 5535 5535 5534 5533 5532 5531 5530 5529 5528 5526 5525 5523 5522 5520 5518 5516 5514 5512 5510 5507 5505 5504 5502 5499 5497 5495 5493 5491 5489 5486 5484 5482 5479 5477 5475 5473 5470 5467 5464 5461 5459 5457 5454 5451 5448 5444 5441 5438 5434 5431 5428 5424 5422 5419 5416 5412 5408 5404 5399 5395 5392 5388 5384 5381 5378 5375 5371 5367 5363 5360 5357 5354 5351 5348 5345 5342 5339 5337
5531 5531 5530 5529 5529 5528 5527 5526 5526 5525 5524 5523 5522 5520 5519 5518 5517 5515 5514 5512 5510 5508 5506 5504 5502 5500 5498 5495 5493 5491 5489 5487 5485 5483 5481 5479 5477 5474 5472 5469 5467 5465 5462 5460 5457 5454 5451 5449 5446 5443 5441 5438 5434 5430 5427 5424 5420 5416 5413 5410 5407 5404 5400 5396 5392 5387 5383 5379 5376 5372 5369 5366 5363 5360 5356 5352 5349 5346 5343 5340 5337 5334 5331 5329 5326
5523 5522 5521 5520 5520 5519 5518 5517 5516 5515 5514 5513 5512 5511 5510 5508 5506 5505 5504 5502 5500 5498 5496 5494 5492 5490 5487 5485 5483 5481 5479 5477 5475 5473 5471 5468 5466 5464 5462 5459 5457 5455 5452 5449 5447 5444 5441 5439 5436 5433 5430 5427 5423 5419 5416 5412 5408 5404 5401 5397 5394 5391 5388 5383 5379 5374 5370 5366 5363 5360 5357 5354 5351 5347 5344 5340 5337 5334 5331 5328 5326 5323 5321 5318 5316
5514 5513 5512 5511 5510 5509 5508 5507 5506 5505 5504 5503 5501 5501 5500 5498 5496 5495 5493 5491 5490 5488 5486 5484 5482 5479 5477 5475 5472 5470 5468 5466 5464 5462 5460 5458 5455 5453 5451 5449 5447 5444 5442 5439 5436 5433 5431 5428 5425 5422 5419 5415 5411 5408 5404 5400 5396 5392 5388 5384 5381 5378 5374 5370 5366 5362 5358 5354 5351 5348 5345 5342 5338 5335 5331 5328 5325 5322 5319 5317 5314 5312 5310 5307 5306
5505 5504 5503 5502 5501 5499 5498 5497 5496 5494 5493 5492 5491 5490 5489 5488 5486 5485 5482 5481 5479 5477 5475 5473 5471 5468 5466 5464 5461 5459 5457 5455 5453 5451 5449 5447 5445 5443 5440 5438 5436 5434 5431 5428 5425 5422 5419 5416 5413 5410 5407 5403 5399 5395 5391 5387 5383 5379 5375 5371 5367 5364 5361 5357 5353 5349 5345 5341 5338 5335 5332 5329 5326 5322 5319 5316 5313 5311 5308 5305 5303 5301 5299 5297 5295
5495 5494 5493 5492 5491 5489 5488 5487 5485 5484 5483 5482 5481 5480 5479 5477 5475 5474 5472 5470 5468 5466 5464 5462 5460 5458 5456 5453 5451 5449 5447 5445 5443 5441 5439 5436 5434 5432 5430 5427 5425 5422 5419 5416 5413 5410 5407 5404 5401 5397 5394 5390 5386 5382 5378 5374 5370 5366 5362 5358 5354 5350 5347 5343 5340 5336 5332 5328 5325 5321 5319 5316 5313 5309 5306 5304 5301 5299 5297 5294 5292 5290 5288 5287 5285
5485 5484 5483 5482 5480 5479 5477 5476 5475 5474 5473 5472 5470 5469 5467 5466 5464 5462 5460 5458 5456 5454 5453 5451 5448 5447 5445 5442 5440 5439 5437 5434 5432 5430 5428 5425 5423 5420 5418 5415 5413 5410 5407 5404 5400 5397 5394 5391 5387 5384 5381 5377 5373 5369 5365 5361 5357 5353 5349 5345 5341 5337 5333 5330 5326 5322 5319 5315 5312 5309 5306 5303 5300 5297 5294 5292 5290 5288 5286 5284 5282 5280 5279 5277 5276
5475 5474 5472 5471 5470 5468 5467 5466 5464 5463 5462 5460 5459 5457 5456 5454 5452 5450 5449 5447 5445 5443 5441 5439 5437 5435 5433 5431 5430 5428 5425 5423 5421 5418 5416 5413 5411 5408 5405 5403 5400 5397 5394 5391 5387 5383 5380 5377 5374 5370 5366 5363 5359 5355 5351 5348 5344 5340 5336 5332 5328 5324 5320 5316 5313 5310 5306 5302 5299 5296 5293 5290 5287 5285 5282 5280 5278 5277 5275 5274 5272 5271 5269 5269 5268
5464 5463 5462 5460 5459 5458 5456 5455 5453 5452 5450 5448 5447 5445 5444 5442 5440 5438 5437 5435 5433 5431 5429 5427 5425 5423 5421 5420 5418 5415 5413 5411 5408 5405 5403 5400 5397 5394 5392 5389 5386 5383 5380 5377 5374 5370 5366 5363 5359 5356 5352 5348 5344 5340 5337 5333 5330 5326 5322 5318 5314 5310 5306 5303 5300 5296 5293 5289 5286 5283 5280 5278 5275 5273 5271 5269 5268 5266 5265 5264 5263 5262 5261 5260 5260
5453 5452 5451 5449 5448 5446 5445 5443 5442 5440 5438 5436 5435 5433 5431 5430 5428 5426 5424 5422 5420 5418 5417 5415 5413 5411 5409 5407 5405 5402 5400 5397 5395 5392 5389 5386 5383 5381 5378 5375 5372 5369 5366 5363 5360 5356 5352 5348 5345 5341 5337 5333 5329 5325 5322 5319 5315 5311 5308 5304 5300 5296 5293 5289 5286 5283 5279 5276 5273 5270 5268 5265 5263 5261 5260 5259 5258 5257 5256 5255 5254 5253 5253 5252 5252